time_stamp(utc),avg(mph),gust(mph),direction(deg),12m_air_temp(f),sonic_u(cm/s),sonic_v(cm/s),sonic_w(cm/s),pressure,2m_air_temp(f),pyranometer(W/m^2)
"2019-11-03 00:02:54+00",11.7,12.7,,50.3,-513,22,29,1016.71,49.3,0
"2019-11-03 00:07:54+00",10.6,11.6,,50.2,-474,60,30,1016.81,49.3,0
"2019-11-03 00:12:54+00",13.4,14.4,,50.5,-596,130,34,1016.8,49.3,0
"2019-11-03 00:17:54+00",12.2,15.2,,50.6,-547,139,57,1016.89,49.5,0
"2019-11-03 00:22:54+00",13.7,15.7,,50.6,-597,190,53,1016.81,49.7,0
"2019-11-03 00:27:54+00",12.6,14.6,,50.4,-521,230,36,1016.81,49.6,0
"2019-11-03 00:32:54+00",13.6,15.6,,50.2,-574,221,50,1016.8,49.5,0
"2019-11-03 00:37:54+00",12.6,14.6,,49.9,-491,280,38,1016.81,49.3,0
"2019-11-03 00:42:54+00",15.2,17.2,,49.7,-613,307,43,1016.93,49,0
"2019-11-03 00:47:54+00",12.4,14.4,,49.5,-432,350,39,1016.93,48.9,0
"2019-11-03 00:52:54+00",12.2,13.2,,48.7,-445,334,41,1016.91,48.5,0
"2019-11-03 00:57:54+00",12.3,14.3,,48.3,-436,354,32,1016.96,48.1,0
"2019-11-03 01:02:54+00",12.1,14.1,,48.1,-425,346,41,1016.9,47.8,0
"2019-11-03 01:07:54+00",11.9,13.9,,48.2,-449,303,43,1016.97,47.7,0
"2019-11-03 01:12:54+00",12.9,14.9,,48.2,-503,305,45,1016.96,47.5,0
"2019-11-03 01:17:54+00",13.4,15.4,,47.9,-524,336,37,1017.01,47.4,0
"2019-11-03 01:22:54+00",13.2,14.2,,47.6,-483,347,37,1017.02,47.2,0
"2019-11-03 01:27:54+00",13.7,14.7,,47.6,-507,318,52,1017.03,47,0
"2019-11-03 01:32:54+00",13.4,17.4,,47.7,-477,365,41,1017.15,47,0
"2019-11-03 01:37:54+00",10.5,13.5,,47.7,-397,281,54,1017.12,47,0
"2019-11-03 01:42:54+00",11.1,13.1,,47.6,-416,285,50,1017.1,47,0
"2019-11-03 01:47:54+00",14.5,18.5,,47.8,-567,303,44,1017.1,47,0
"2019-11-03 01:52:54+00",15.5,18.5,,47.9,-605,348,35,1017.06,47,0
"2019-11-03 01:57:54+00",12.8,14.8,,47.9,-488,312,44,1017.06,47.1,0
"2019-11-03 02:02:54+00",12.9,14.9,,47.6,-438,377,36,1017.07,47,0
"2019-11-03 02:07:54+00",12.8,15.8,,47.2,-436,376,50,1017.19,46.9,0
"2019-11-03 02:12:54+00",13.5,14.5,,46.9,-489,344,44,1017.19,46.6,0
"2019-11-03 02:17:54+00",11.6,13.6,,46.8,-410,323,46,1017.16,46.4,0
"2019-11-03 02:22:54+00",12.7,13.7,,46.4,-421,280,84,1017.23,46.1,0
"2019-11-03 02:27:54+00",14.0,15.0,,46.3,-339,-64,267,1017.29,45.9,0
"2019-11-03 02:32:54+00",11.4,13.4,,46.4,-373,128,125,1017.21,45.9,0
"2019-11-03 02:37:54+00",12.8,15.8,,46.5,-459,128,115,1017.19,45.8,0
"2019-11-03 02:42:54+00",11.4,14.4,,46.6,-437,168,87,1017.29,45.9,0
"2019-11-03 02:47:54+00",13.7,15.7,,46.7,-461,192,115,1017.27,46,0
"2019-11-03 02:52:54+00",16.0,18.0,,46.8,-593,398,33,1017.3,46.1,0
"2019-11-03 02:57:54+00",15.2,17.2,,46.7,-564,320,68,1017.41,46.1,0
"2019-11-03 03:02:54+00",14.6,17.6,,46.4,-482,248,98,1017.41,46,0
"2019-11-03 03:07:54+00",14.6,17.6,,46.1,-237,-219,375,1017.34,45.8,0
"2019-11-03 03:12:54+00",13.7,15.7,,46,-191,-227,378,1017.33,45.7,0
"2019-11-03 03:17:54+00",15.3,18.3,,45.8,136,-828,741,1017.34,45.5,0
"2019-11-03 03:22:54+00",13.4,18.4,,45.7,60,-602,603,1017.34,45.4,0
"2019-11-03 03:27:54+00",16.0,18.0,,45.6,461,-1406,1086,1017.33,45.3,0
"2019-11-03 03:32:54+00",15.8,17.8,,45.5,756,-1936,1359,1017.3,45.2,0
"2019-11-03 03:37:54+00",15.1,16.1,,45.3,919,-2211,1487,1017.3,45,0
"2019-11-03 03:42:54+00",12.5,16.5,,45,944,-2163,1423,1017.23,44.8,0
"2019-11-03 03:47:54+00",14.0,16.0,,44.9,1254,-2666,1742,1017.15,44.6,0
"2019-11-03 03:52:54+00",14.3,16.3,,44.7,1337,-2856,1828,1017.29,44.5,0
"2019-11-03 03:57:54+00",13.7,14.7,,44.6,1515,-3083,1980,1017.26,44.4,0
"2019-11-03 04:02:54+00",15.3,17.3,,44.5,1728,-3489,2224,1017.2,44.2,0
"2019-11-03 04:07:54+00",13.3,15.3,,44.6,1435,-3038,1913,1017.22,44.2,0
"2019-11-03 04:12:54+00",13.0,15.0,,44.6,1359,-2840,1814,1017.19,44.2,0
"2019-11-03 04:17:54+00",12.7,14.7,,44.4,1507,-3119,1953,1017.1,44.1,0
"2019-11-03 04:22:54+00",10.6,13.6,,44.3,1252,-2564,1622,1017.16,44.1,0
"2019-11-03 04:27:54+00",10.6,12.6,,44,1700,-3389,2063,1017.11,43.9,0
"2019-11-03 04:32:54+00",12.8,14.8,,44,1745,-3497,2155,1017.11,43.7,0
"2019-11-03 04:37:54+00",13.4,14.4,,43.9,1845,-3684,2284,1017.1,43.6,0
"2019-11-03 04:42:54+00",12.5,14.5,,43.8,1795,-3586,2200,1017.11,43.6,0
"2019-11-03 04:47:54+00",13.2,14.2,,43.8,1880,-3734,2322,1017.05,43.5,0
"2019-11-03 04:52:54+00",12.3,15.3,,43.9,1814,-3710,2245,1017.02,43.5,0
"2019-11-03 04:57:54+00",11.9,12.9,,44.2,1783,-3566,2184,1016.93,43.5,0
"2019-11-03 05:02:54+00",12.2,14.2,,44.3,1461,-2941,1858,1016.93,43.7,0
"2019-11-03 05:07:54+00",13.8,15.8,,44.2,1917,-3882,2377,1016.92,43.7,0
"2019-11-03 05:12:54+00",14.2,16.2,,44.1,1680,-3358,2143,1016.95,43.7,0
"2019-11-03 05:17:54+00",12.3,14.3,,44.3,1724,-3438,2122,1016.89,43.8,0
"2019-11-03 05:22:54+00",12.7,15.7,,44.2,1850,-3689,2255,1016.87,43.8,0
"2019-11-03 05:27:54+00",12.6,14.6,,44.3,1665,-3381,2080,1016.87,43.8,0
"2019-11-03 05:32:54+00",11.2,14.2,,44.4,1593,-3210,1994,1016.94,43.8,0
"2019-11-03 05:37:54+00",13.5,15.5,,44.4,1435,-2936,1870,1016.86,43.9,0
"2019-11-03 05:42:54+00",12.6,14.6,,44.5,1537,-3132,1963,1016.89,44,0
"2019-11-03 05:47:54+00",11.4,14.4,,44.5,1754,-3563,2147,1016.92,44.1,0
"2019-11-03 05:52:54+00",11.6,13.6,,44.6,1579,-3232,1958,1016.91,44.1,0
"2019-11-03 05:57:54+00",11.1,13.1,,44.7,1301,-2758,1725,1016.88,44.1,0
"2019-11-03 06:02:54+00",11.3,14.3,,45,1084,-2385,1493,1016.84,44.2,0
"2019-11-03 06:07:54+00",11.1,13.1,,44.9,1397,-2904,1791,1016.85,44.3,0
"2019-11-03 06:12:54+00",11.0,13.0,,44.7,1481,-3044,1871,1016.87,44.3,0
"2019-11-03 06:17:54+00",12.7,13.7,,44.3,1897,-3843,2331,1016.98,44.1,0
"2019-11-03 06:22:54+00",10.4,12.4,,44.1,1813,-3608,2159,1017.01,43.9,0
"2019-11-03 06:27:54+00",13.1,15.1,,44,2004,-4016,2416,1016.95,43.8,0
"2019-11-03 06:32:54+00",12.2,14.2,,44.1,1837,-3680,2240,1016.96,43.7,0
"2019-11-03 06:37:54+00",12.5,14.5,,44.3,1759,-3556,2197,1016.88,43.8,0
"2019-11-03 06:42:54+00",12.2,13.2,,44.2,1738,-3481,2143,1016.86,43.8,0
"2019-11-03 06:47:54+00",10.4,11.4,,44.1,1874,-3704,2223,1016.94,43.7,0
"2019-11-03 06:52:54+00",9.8,12.8,,44.1,1630,-3210,1950,1016.94,43.6,0
"2019-11-03 06:57:54+00",11.0,13.0,,44.2,1689,-3360,2057,1016.93,43.6,0
"2019-11-03 07:02:54+00",11.0,13.0,,44.2,1944,-3910,2319,1017.01,43.6,0
"2019-11-03 07:07:54+00",11.8,15.8,,44.4,1648,-3338,2050,1016.96,43.6,0
"2019-11-03 07:12:54+00",13.4,17.4,,44.3,1715,-3465,2140,1016.9,43.7,0
"2019-11-03 07:17:54+00",12.3,15.3,,44,1836,-3641,2205,1016.86,43.6,0
"2019-11-03 07:22:54+00",11.3,13.3,,43.9,1890,-3748,2273,1016.85,43.6,0
"2019-11-03 07:27:54+00",11.9,12.9,,44.3,1792,-3573,2186,1016.84,43.5,0
"2019-11-03 07:32:54+00",11.9,12.9,,44.1,1841,-3593,2218,1016.8,43.5,0
"2019-11-03 07:37:54+00",11.3,14.3,,43.7,1906,-3721,2255,1016.91,43.4,0
"2019-11-03 07:42:54+00",11.2,13.2,,44,1954,-3896,2321,1016.86,43.3,0
"2019-11-03 07:47:54+00",11.7,13.7,,44.6,1458,-3065,1876,1016.86,43.5,0
"2019-11-03 07:52:54+00",14.2,15.2,,45,1478,-3238,1990,1016.86,43.8,0
"2019-11-03 07:57:54+00",11.1,12.1,,44.9,1279,-2704,1686,1016.9,43.9,0
"2019-11-03 08:02:54+00",11.9,13.9,,44.8,1443,-3041,1867,1016.85,44,0
"2019-11-03 08:07:54+00",11.2,13.2,,45,916,-2073,1340,1016.91,44.1,0
"2019-11-03 08:12:54+00",13.8,15.8,,44.8,1560,-3258,1991,1016.84,44.1,0
"2019-11-03 08:17:54+00",13.8,15.8,,44.6,1559,-3238,2057,1016.97,44.1,0
"2019-11-03 08:22:54+00",13.8,15.8,,44.5,1822,-3685,2291,1016.95,44,0
"2019-11-03 08:27:54+00",11.2,14.2,,44.3,1639,-3302,2023,1016.91,43.9,0
"2019-11-03 08:32:54+00",10.7,13.7,,44.2,1612,-3260,2008,1016.91,43.8,0
"2019-11-03 08:37:54+00",14.3,15.3,,44.2,1743,-3530,2210,1016.87,43.7,0
"2019-11-03 08:42:54+00",11.8,13.8,,44.2,1646,-3316,2037,1016.76,43.7,0
"2019-11-03 08:47:54+00",10.5,13.5,,43.9,1609,-3128,1910,1016.77,43.6,0
"2019-11-03 08:52:54+00",10.2,12.2,,43.4,1861,-3613,2183,1016.82,43.3,0
"2019-11-03 08:57:54+00",10.6,12.6,,43.1,2004,-3885,2355,1017.01,42.9,0
"2019-11-03 09:22:54+00",13.4,15.4,,43.9,17162,0,144,1017.22,42.9,-0.1
"2019-11-03 09:27:54+00",13.2,15.2,,44,2049,-4065,2481,1017.28,43.1,0
"2019-11-03 09:32:54+00",13.2,17.2,,43.9,1955,-3883,2403,1017.21,43.2,0
"2019-11-03 09:37:54+00",15.5,19.5,,43.8,2009,-4040,2491,1017.21,43.2,0
"2019-11-03 09:52:54+00",14.0,17.0,,43.3,17161,0,160,1017.33,42.9,-0.1
"2019-11-03 09:57:54+00",14.7,17.7,,43.4,1966,-3888,2411,1017.31,42.9,0
"2019-11-03 11:02:54+00",14.6,17.6,,42.2,17165,0,148,1017.55,41.4,-0.1
"2019-11-03 11:07:54+00",11.5,13.5,,42.3,1573,-2997,1901,1017.58,41.6,0
"2019-11-03 11:32:54+00",14.9,18.9,,42.2,17164,0,159,1018.06,41.6,-0.1
"2019-11-03 11:37:54+00",15.4,17.4,,42.3,1677,-3582,2222,1018.43,41.6,0
"2019-11-03 11:42:54+00",13.7,16.7,,42.3,17170,0,173,1018.48,41.7,-0.1
"2019-11-03 11:47:54+00",12.2,15.2,,42.4,2006,-3901,2397,1018.49,41.9,0
"2019-11-03 11:52:54+00",12.7,14.7,,42.7,1542,-3149,1970,1018.58,42,0
"2019-11-03 11:57:54+00",14.2,16.2,,42.7,-257,-50,293,1018.57,42.1,0
"2019-11-03 12:02:54+00",11.3,13.3,,42.5,-316,142,154,1018.55,42.1,34.8
"2019-11-03 12:07:54+00",13.3,16.3,,42.3,-335,82,211,1018.62,42.2,41.3
"2019-11-03 12:12:54+00",11.7,13.7,,42,-287,73,210,1018.6,42.3,51.3
"2019-11-03 12:17:54+00",12.8,14.8,,41.9,-468,342,24,1018.74,42.4,61.4
"2019-11-03 12:22:54+00",11.4,13.4,,42.1,-443,292,47,1018.83,42.8,70
"2019-11-03 12:27:54+00",12.6,14.6,,41.9,-468,326,43,1018.82,43,80.1
"2019-11-03 12:32:54+00",12.8,14.8,,42,-478,342,46,1018.88,43.2,88.7
"2019-11-03 12:37:54+00",15.9,17.9,,42.2,-565,445,34,1019,43.3,98.2
"2019-11-03 12:42:54+00",14.6,16.6,,42.6,-516,399,29,1019.15,43.6,109.3
"2019-11-03 12:47:54+00",13.9,14.9,,42.9,-491,383,34,1019.27,43.9,119.7
"2019-11-03 12:52:54+00",13.0,16.0,,43.5,-462,339,48,1019.34,44.4,126
"2019-11-03 12:57:54+00",13.3,15.3,,43.3,-460,388,50,1019.42,44.6,135
"2019-11-03 13:02:54+00",14.0,16.0,,43.2,-504,396,26,1019.59,44.7,143.3
"2019-11-03 13:07:54+00",11.3,13.3,,43.9,-403,302,62,1019.64,45.1,154
"2019-11-03 13:12:54+00",16.3,18.3,,44.3,-618,436,23,1019.72,45.5,162.9
"2019-11-03 13:17:54+00",15.1,17.1,,44.6,-539,417,39,1019.81,45.9,170.9
"2019-11-03 13:22:54+00",16.6,18.6,,44.7,-630,423,27,1019.86,46.2,180.7
"2019-11-03 13:27:54+00",15.2,17.2,,45,-538,419,42,1019.88,46.5,188.4
"2019-11-03 13:32:54+00",14.2,16.2,,45.7,-548,319,38,1020.05,47,196.3
"2019-11-03 13:37:54+00",14.3,16.3,,45.9,-504,400,54,1020.08,47.4,205.3
"2019-11-03 13:42:54+00",11.5,15.5,,46.5,-427,272,108,1020.07,47.9,212.8
"2019-11-03 13:47:54+00",14.6,17.6,,46.6,-553,394,57,1020.12,48.3,218.3
"2019-11-03 13:52:54+00",14.5,16.5,,46.6,-569,319,47,1020.2,48.5,224.3
"2019-11-03 13:57:54+00",14.9,17.9,,46.8,-541,383,44,1020.15,48.8,223.8
"2019-11-03 14:02:54+00",15.8,17.8,,46.7,-550,455,53,1020.19,48.8,238.6
"2019-11-03 14:07:54+00",15.5,18.5,,46.7,-608,357,50,1020.17,48.9,241.7
"2019-11-03 14:12:54+00",14.7,16.7,,46.7,-573,337,51,1020.15,49,247.4
"2019-11-03 14:17:54+00",14.4,15.4,,47,-549,353,48,1020.18,49.1,240.6
"2019-11-03 14:22:54+00",15.4,17.4,,47.2,-552,421,34,1020.15,49.3,258.9
"2019-11-03 14:27:54+00",15.5,17.5,,47.8,-589,377,46,1020.22,49.5,254.6
"2019-11-03 14:32:54+00",17.6,20.6,,47.9,-690,409,51,1020.15,49.9,270.5
"2019-11-03 14:37:54+00",17.6,19.6,,48.1,-593,523,41,1020.11,50,276.3
"2019-11-03 14:42:54+00",18.9,21.9,,48.2,-663,541,52,1020.18,50,282.5
"2019-11-03 14:47:54+00",20.9,24.9,,48.3,-714,606,56,1020.15,50,286.5
"2019-11-03 14:52:54+00",16.6,19.6,,48.5,-558,513,51,1020.2,50.1,290.2
"2019-11-03 14:57:54+00",16.9,20.9,,48.5,-695,354,73,1020.17,50.4,297.2
"2019-11-03 15:02:54+00",18.3,21.3,,48.6,-713,415,46,1020.24,50.7,301.3
"2019-11-03 15:07:54+00",17.1,20.1,,48.5,-622,482,60,1020.15,50.6,303.1
"2019-11-03 15:12:54+00",21.8,23.8,,48.7,-835,522,39,1020.17,50.7,308.4
"2019-11-03 15:17:54+00",20.6,24.6,,49.1,-668,639,97,1020.1,50.8,313.9
"2019-11-03 15:22:54+00",22.9,24.9,,49,-787,682,47,1020.01,50.9,317.9
"2019-11-03 15:27:54+00",22.5,28.5,,49,-711,718,62,1020.02,50.8,320.8
"2019-11-03 15:32:54+00",22.7,23.7,,49.2,-744,716,43,1020.05,50.9,323.2
"2019-11-03 15:37:54+00",22.4,26.4,,49.1,-786,682,50,1020.02,50.9,327.2
"2019-11-03 15:42:54+00",18.2,20.2,,48.9,-568,593,39,1020.05,50.9,328.2
"2019-11-03 15:47:54+00",20.8,22.8,,49.3,-759,551,55,1019.99,51.2,331.4
"2019-11-03 15:52:54+00",16.1,19.1,,49.4,-603,435,58,1020.06,51.3,319.2
"2019-11-03 15:57:54+00",14.9,16.9,,49.4,-504,477,38,1020.04,51.7,332.7
"2019-11-03 16:02:54+00",17.9,21.9,,49.5,-677,433,44,1019.98,52,335.7
"2019-11-03 16:07:54+00",17.0,19.0,,49.8,-653,416,47,1019.97,52.3,336.5
"2019-11-03 16:12:54+00",13.5,20.5,,49.7,-510,398,57,1019.95,52.2,340.2
"2019-11-03 16:17:54+00",16.8,19.8,,50,-703,331,81,1019.95,52.3,337.7
"2019-11-03 16:22:54+00",18.0,20.0,,49.8,-597,556,30,1019.97,52.3,341.1
"2019-11-03 16:27:54+00",17.3,20.3,,49.6,-650,431,48,1019.84,52.1,341.6
"2019-11-03 16:32:54+00",14.9,17.9,,50.2,-612,309,73,1019.77,52.4,337.6
"2019-11-03 16:37:54+00",18.6,21.6,,49.8,-702,479,54,1019.85,52.7,337.2
"2019-11-03 16:42:54+00",17.3,21.3,,50.2,-701,352,71,1019.81,52.9,336.2
"2019-11-03 16:47:54+00",18.9,25.9,,50.1,-716,559,7,1019.8,53.1,335.5
"2019-11-03 16:52:54+00",15.6,18.6,,50.3,-613,350,71,1019.79,53.1,333.4
"2019-11-03 16:57:54+00",17.7,20.7,,49.9,-563,584,44,1019.77,52.7,332.2
"2019-11-03 17:02:54+00",20.3,23.3,,50.2,-700,593,46,1019.78,52.6,327.5
"2019-11-03 17:07:54+00",14.7,16.7,,49.9,-527,406,40,1019.82,52.4,325.8
"2019-11-03 17:12:54+00",17.8,19.8,,50.1,-700,400,25,1019.78,52.9,320.3
"2019-11-03 17:17:54+00",14.1,16.1,,50.4,-580,293,41,1019.71,53.1,319.1
"2019-11-03 17:22:54+00",17.2,19.2,,50.4,-680,416,79,1019.67,53.2,319.3
"2019-11-03 17:27:54+00",14.2,16.2,,50.1,-552,327,25,1019.63,53.1,316.9
"2019-11-03 17:32:54+00",16.6,21.6,,50.4,-615,446,83,1019.47,53.5,311.7
"2019-11-03 17:37:54+00",14.9,16.9,,50.8,-508,480,69,1019.45,53.5,309.1
"2019-11-03 17:42:54+00",12.2,16.2,,50.7,-503,252,64,1019.44,53.5,307.5
"2019-11-03 17:47:54+00",15.0,18.0,,50.3,-684,122,41,1019.35,53.6,300.2
"2019-11-03 17:52:54+00",16.9,18.9,,50.6,-731,276,46,1019.3,53.6,296
"2019-11-03 17:57:54+00",20.1,23.1,,50.8,-855,388,63,1019.24,53.8,291
"2019-11-03 18:02:54+00",14.8,17.8,,50.9,-572,379,66,1019.24,53.6,289.5
"2019-11-03 18:07:54+00",20.3,22.3,,50.8,-853,335,40,1019.27,53.7,283.6
"2019-11-03 18:12:54+00",15.6,18.6,,50.8,-640,317,69,1019.29,53.6,278.7
"2019-11-03 18:17:54+00",16.1,18.1,,50.9,-700,194,31,1019.37,53.7,270.4
"2019-11-03 18:22:54+00",15.2,18.2,,51.2,-666,166,76,1019.22,54.1,265.7
"2019-11-03 18:27:54+00",14.1,16.1,,51.1,-568,339,26,1019.33,54.1,262
"2019-11-03 18:32:54+00",18.2,20.2,,51.3,-795,314,55,1019.41,54.1,254.6
"2019-11-03 18:37:54+00",16.8,19.8,,51.1,-727,277,51,1019.45,54.2,248.2
"2019-11-03 18:42:54+00",16.9,19.9,,51.1,-728,271,66,1019.48,54.1,244.7
"2019-11-03 18:47:54+00",15.1,17.1,,51.1,-674,183,83,1019.48,54.1,239.8
"2019-11-03 18:52:54+00",17.6,20.6,,51.3,-738,330,53,1019.43,54.2,235.3
"2019-11-03 18:57:54+00",16.5,19.5,,51.3,-658,363,48,1019.45,54.3,231
"2019-11-03 19:02:54+00",18.8,20.8,,51.2,-837,220,48,1019.5,54.3,224.7
"2019-11-03 19:07:54+00",19.6,23.6,,51.3,-850,279,58,1019.44,54.3,219.5
"2019-11-03 19:12:54+00",18.6,20.6,,51.2,-810,269,53,1019.64,54.2,211.7
"2019-11-03 19:17:54+00",18.3,20.3,,51.2,-814,208,49,1019.6,54.2,202.4
"2019-11-03 19:22:54+00",16.6,19.6,,51.5,-708,266,102,1019.55,54.2,195.6
"2019-11-03 19:27:54+00",13.1,15.1,,51.6,-545,287,36,1019.66,54.4,192.1
"2019-11-03 19:32:54+00",14.6,18.6,,51.5,-540,392,67,1019.63,54.4,185.3
"2019-11-03 19:37:54+00",16.5,18.5,,51.2,-718,201,52,1019.68,54.2,177.9
"2019-11-03 19:42:54+00",17.1,19.1,,51.3,-758,185,44,1019.67,54.3,171.8
"2019-11-03 19:47:54+00",16.5,17.5,,51.4,-728,180,42,1019.59,54.4,163.2
"2019-11-03 19:52:54+00",13.4,16.4,,51.4,-558,271,41,1019.62,54.2,155.9
"2019-11-03 19:57:54+00",14.4,16.4,,51.5,-574,319,62,1019.73,54.3,147.7
"2019-11-03 20:02:54+00",17.4,19.4,,51.4,-750,282,57,1019.79,54.2,139.3
"2019-11-03 20:07:54+00",16.0,18.0,,51.5,-696,199,63,1019.87,54.2,130
"2019-11-03 20:12:54+00",17.0,18.0,,51.3,-740,194,30,1019.93,54,120.4
"2019-11-03 20:17:54+00",14.3,16.3,,51.5,-618,175,57,1019.9,54.1,111.6
"2019-11-03 20:22:54+00",13.7,15.7,,51.4,-558,260,48,1020,54,104.3
"2019-11-03 20:27:54+00",16.6,19.6,,51.6,-705,243,57,1020.03,53.9,95.3
"2019-11-03 20:32:54+00",14.8,15.8,,51.5,-634,244,42,1020.08,53.6,84.7
"2019-11-03 20:37:54+00",14.4,16.4,,51.5,-587,287,36,1020.18,53.5,75.4
"2019-11-03 20:42:54+00",12.5,15.5,,51.6,-567,184,53,1020.31,53.5,66.4
"2019-11-03 20:47:54+00",14.2,16.2,,51.7,-535,356,32,1020.29,53.3,56.5
"2019-11-03 20:52:54+00",13.4,16.4,,51.5,-561,279,42,1020.25,53.2,47.5
"2019-11-03 20:57:54+00",13.3,15.3,,51.6,-543,245,29,1020.45,53.1,38.9
"2019-11-03 21:02:54+00",17.5,19.5,,51.7,-689,402,50,1020.41,53,29.9
"2019-11-03 21:07:54+00",16.0,18.0,,51.6,-558,494,43,1020.45,52.6,23.1
"2019-11-03 21:12:54+00",13.3,16.3,,51.6,-454,383,40,1020.66,52.3,13.5
"2019-11-03 21:17:54+00",15.8,17.8,,51.7,-587,434,34,1020.71,52.1,7.5
"2019-11-03 21:22:54+00",15.7,18.7,,51.6,-531,481,57,1020.77,51.9,1.6
"2019-11-03 21:27:54+00",14.0,16.0,,51.5,-537,350,43,1020.77,51.8,0
"2019-11-03 21:32:54+00",12.1,16.1,,51.5,-415,405,71,1020.83,51.6,0
"2019-11-03 21:37:54+00",10.9,12.9,,51.3,-444,297,37,1020.92,51.4,0
"2019-11-03 21:42:54+00",12.7,14.7,,51.4,-476,314,53,1021,51.1,0
"2019-11-03 21:47:54+00",11.5,13.5,,51.2,-477,308,41,1021.09,50.8,0
"2019-11-03 21:52:54+00",10.1,12.1,,51.1,-423,294,46,1021.1,50.5,0
"2019-11-03 21:57:54+00",10.8,15.8,,51,-477,251,51,1021.22,50.2,0
"2019-11-03 22:02:54+00",12.6,14.6,,51,-536,284,33,1021.3,50.1,0
"2019-11-03 22:07:54+00",12.5,13.5,,51,-514,297,25,1021.32,49.9,0
"2019-11-03 22:12:54+00",12.2,14.2,,50.9,-492,254,31,1021.31,49.7,0
"2019-11-03 22:17:54+00",11.6,14.6,,50.8,-467,271,32,1021.34,49.6,0
"2019-11-03 22:22:54+00",6.5,9.5,,50.6,-333,78,33,1021.37,49.6,0
"2019-11-03 22:27:54+00",8.2,9.2,,50.6,-393,142,29,1021.33,49.6,0
"2019-11-03 22:32:54+00",9.8,11.8,,50.5,-442,224,24,1021.34,49.3,0
"2019-11-03 22:37:54+00",6.7,9.7,,50.2,-357,54,35,1021.37,49.2,0
"2019-11-03 22:42:54+00",8.6,11.6,,50.1,-412,24,17,1021.38,49,0
"2019-11-03 22:47:54+00",9.9,10.9,,50.2,-458,73,23,1021.61,48.8,0
"2019-11-03 22:52:54+00",9.3,11.3,,50.1,-418,98,42,1021.58,48.6,0
"2019-11-03 22:57:54+00",9.9,11.9,,50,-440,187,38,1021.54,48.6,0
"2019-11-03 23:02:54+00",9.8,11.8,,50,-459,121,34,1021.71,48.6,0
"2019-11-03 23:07:54+00",11.2,13.2,,50,-478,243,35,1021.7,48.6,0
"2019-11-03 23:12:54+00",9.2,11.2,,49.9,-427,168,28,1021.74,48.6,0
"2019-11-03 23:17:54+00",9.5,11.5,,49.8,-403,136,31,1021.81,48.4,0
"2019-11-03 23:22:54+00",8.0,10.0,,49.6,-351,87,49,1021.85,48.4,0
"2019-11-03 23:27:54+00",8.8,10.8,,49.5,-414,138,41,1021.9,48.4,0
"2019-11-03 23:32:54+00",10.5,12.5,,49.3,-486,188,30,1021.9,48.3,0
"2019-11-03 23:37:54+00",10.0,12.0,,49.3,-463,191,38,1021.98,48.2,0
"2019-11-03 23:42:54+00",11.9,14.9,,49.4,-517,237,33,1021.93,48.1,0
"2019-11-03 23:47:54+00",11.0,13.0,,49.4,-500,195,34,1021.99,48,0
"2019-11-03 23:52:54+00",9.6,12.6,,49.1,-464,110,42,1022.07,47.9,0
"2019-11-03 23:57:54+00",8.3,10.3,,49,-401,81,39,1022.1,47.9,0
